Terminal Aerodrome Forecast
Issued by NWS Riverton, WY

Home | Current Version | Previous Version | Text Only | Print | Product List | Glossary On
Versions: 1 2 3 4 5 6 7 8 9 10 11 12
369
FTUS45 KRIW 110532
TAFRIW
TAF
KRIW 110532Z 1106/1206 23006KT P6SM BKN250
     FM111500 VRB05KT P6SM BKN250=

USA.gov is the U.S. government's official web portal to all federal, state and local government web resources and services.